Language: 


Des rapports , des résumés tant et plus, au choix de chacun....


Données statistiques de la station
Quotidien Rapport Avril 26, 2017 Unités:  Métrique    Anglais   les deux
« Précédent Jour
Suivant Jour »
Quotidien Hebdomadaire Mensuel Annuel Actuel
  Haut: Bas: Moyen:
Température: 13.1 °C 1.5 °C 6.6 °C
Pt de rosée: 8.0 °C -5.0 °C 1.9 °C
Humidité: 95 % 47 % 73 %
Vitesse du vent: 27.7 km/h 0.0 km/h 6.9 km/h
Rafales: 31.4 km/h - -
Vent:- - WSW
Pression: 1016.8 hPa 1010.0 hPa -
Précipitation: 3.8 mm    
Historical Graphs
 
 
Données statistiques pour Avril 26, 2017
Heure Température Point de rosée Pression Vent Vitesse du vent Refales Humidité Pluie (taux horaire)
00:02 2.3 °C -5.0 °C 1011.1 hPa WNW 6.4 km/h 8.7 km/h 59 % 0.0 mm
00:07 2.5 °C -4.0 °C 1011.1 hPa Calm   6.9 km/h 59 % 0.0 mm
00:12 2.6 °C -4.0 °C 1011.1 hPa Calm   6.9 km/h 59 % 0.0 mm
00:17 2.7 °C -4.0 °C 1011.1 hPa West 7.9 km/h 9.3 km/h 59 % 0.0 mm
00:22 2.7 °C -4.0 °C 1011.1 hPa West 5.8 km/h 9.3 km/h 60 % 0.0 mm
00:27 2.8 °C -4.0 °C 1011.1 hPa Calm   9.0 km/h 60 % 0.0 mm
00:33 3.0 °C -4.0 °C 1011.1 hPa West 5.0 km/h 6.4 km/h 61 % 0.0 mm
00:38 3.1 °C -4.0 °C 1010.0 hPa WNW 1.8 km/h 6.4 km/h 61 % 0.0 mm
00:43 3.5 °C -2.0 °C 1010.0 hPa WNW 1.8 km/h 5.0 km/h 64 % 0.0 mm
00:48 3.8 °C -2.0 °C 1010.0 hPa North 8.7 km/h 8.7 km/h 65 % 0.0 mm
00:53 4.2 °C -1.0 °C 1011.1 hPa WNW 8.7 km/h 11.6 km/h 65 % 0.0 mm
00:58 4.4 °C -1.0 °C 1011.1 hPa NW 5.8 km/h 11.6 km/h 66 % 0.0 mm
01:03 4.6 °C -1.0 °C 1011.1 hPa West 5.5 km/h 9.7 km/h 68 % 0.0 mm
01:08 4.6 °C -1.0 °C 1011.1 hPa West 6.9 km/h 12.6 km/h 69 % 0.0 mm
01:13 4.7 °C -1.0 °C 1011.1 hPa West 8.7 km/h 12.6 km/h 69 % 0.0 mm
01:18 4.7 °C -1.0 °C 1011.1 hPa West 5.8 km/h 12.2 km/h 69 % 0.0 mm
01:23 4.7 °C 0.0 °C 1011.1 hPa West 7.9 km/h 12.2 km/h 70 % 0.0 mm
01:28 4.7 °C 0.0 °C 1011.1 hPa WSW 10.5 km/h 12.6 km/h 70 % 0.0 mm
01:33 4.5 °C 0.0 °C 1011.1 hPa WSW 7.6 km/h 12.6 km/h 70 % 0.0 mm
01:39 4.3 °C -1.0 °C 1011.1 hPa WNW 6.9 km/h 10.1 km/h 70 % 0.0 mm
01:44 4.1 °C -1.0 °C 1011.1 hPa West 7.9 km/h 9.7 km/h 71 % 0.0 mm
01:49 4.0 °C -1.0 °C 1011.1 hPa West 5.8 km/h 10.5 km/h 71 % 0.0 mm
01:54 3.8 °C -1.0 °C 1011.1 hPa WSW 5.5 km/h 10.5 km/h 71 % 0.0 mm
01:59 3.7 °C -1.0 °C 1011.1 hPa West 6.4 km/h 9.7 km/h 72 % 0.0 mm
02:04 3.7 °C 0.0 °C 1011.1 hPa West 2.1 km/h 13.7 km/h 74 % 0.0 mm
02:09 3.8 °C 0.0 °C 1010.0 hPa WSW 8.7 km/h 13.7 km/h 74 % 0.0 mm
02:14 3.9 °C 0.0 °C 1010.0 hPa WSW 10.8 km/h 13.0 km/h 76 % 0.0 mm
02:19 4.0 °C 1.0 °C 1010.0 hPa WNW 7.6 km/h 14.0 km/h 78 % 0.0 mm
02:24 4.0 °C 1.0 °C 1010.0 hPa West 9.0 km/h 14.0 km/h 77 % 0.0 mm
02:29 3.9 °C 1.0 °C 1010.0 hPa West 8.7 km/h 12.6 km/h 78 % 0.0 mm
02:34 3.6 °C 0.0 °C 1010.0 hPa West 8.7 km/h 10.5 km/h 78 % 0.0 mm
02:39 3.5 °C 0.0 °C 1010.0 hPa WSW 5.0 km/h 10.5 km/h 78 % 0.0 mm
02:44 3.3 °C 0.0 °C 1010.0 hPa West 8.7 km/h 10.5 km/h 78 % 0.0 mm
02:49 3.1 °C 0.0 °C 1010.0 hPa West 6.1 km/h 10.1 km/h 79 % 0.0 mm
02:55 3.0 °C 0.0 °C 1011.1 hPa West 8.7 km/h 9.3 km/h 79 % 0.5 mm
03:00 2.8 °C 0.0 °C 1011.1 hPa West 4.0 km/h 9.7 km/h 81 % 0.5 mm
03:05 2.8 °C 0.0 °C 1011.1 hPa West 6.9 km/h 9.7 km/h 81 % 0.5 mm
03:10 2.7 °C 0.0 °C 1011.1 hPa West 5.8 km/h 10.1 km/h 81 % 0.5 mm
03:15 2.6 °C 0.0 °C 1011.1 hPa West 6.1 km/h 10.1 km/h 82 % 0.5 mm
03:20 2.4 °C 0.0 °C 1011.1 hPa West 6.9 km/h 9.3 km/h 82 % 0.5 mm
03:25 2.3 °C 0.0 °C 1010.0 hPa West 6.9 km/h 7.6 km/h 82 % 0.5 mm
03:30 2.1 °C 0.0 °C 1010.0 hPa West 3.2 km/h 7.6 km/h 82 % 0.5 mm
03:35 1.9 °C -1.0 °C 1010.0 hPa Calm   6.9 km/h 83 % 0.5 mm
03:40 1.8 °C -1.0 °C 1011.1 hPa Calm   6.9 km/h 83 % 0.5 mm
03:45 1.7 °C -1.0 °C 1011.1 hPa Calm   5.0 km/h 83 % 0.5 mm
03:50 1.6 °C -1.0 °C 1011.1 hPa Calm     84 % 0.5 mm
03:55 1.5 °C -1.0 °C 1010.0 hPa Calm     84 % 0.0 mm
04:00 1.6 °C -1.0 °C 1010.0 hPa NNW 1.8 km/h 4.3 km/h 84 % 0.0 mm
04:05 2.0 °C 0.0 °C 1011.1 hPa NNW 6.1 km/h 7.9 km/h 86 % 0.0 mm
04:11 2.4 °C 1.0 °C 1011.1 hPa NE 6.1 km/h 7.9 km/h 88 % 0.0 mm
04:16 2.7 °C 1.0 °C 1011.1 hPa NNE 6.4 km/h 10.5 km/h 89 % 0.0 mm
04:21 2.9 °C 2.0 °C 1011.1 hPa NNW 2.6 km/h 10.5 km/h 89 % 0.0 mm
04:26 3.0 °C 2.0 °C 1011.1 hPa Calm   7.9 km/h 89 % 0.0 mm
04:31 3.2 °C 2.0 °C 1011.1 hPa Calm   4.0 km/h 89 % 0.0 mm
04:36 3.1 °C 1.0 °C 1010.0 hPa West 3.2 km/h 7.2 km/h 88 % 0.0 mm
04:41 3.0 °C 1.0 °C 1010.0 hPa Calm   7.2 km/h 88 % 0.0 mm
04:46 2.8 °C 1.0 °C 1010.0 hPa Calm   4.3 km/h 88 % 0.0 mm
04:51 2.7 °C 1.0 °C 1011.1 hPa Calm   4.0 km/h 87 % 0.0 mm
04:56 2.5 °C 1.0 °C 1011.1 hPa West 4.3 km/h 7.6 km/h 87 % 0.0 mm
05:01 2.4 °C 1.0 °C 1011.1 hPa West 6.1 km/h 7.6 km/h 87 % 0.5 mm
05:06 2.4 °C 1.0 °C 1011.1 hPa West 6.9 km/h 9.0 km/h 88 % 0.5 mm
05:11 2.3 °C 1.0 °C 1011.1 hPa West 6.1 km/h 9.0 km/h 88 % 0.5 mm
05:16 2.2 °C 1.0 °C 1011.1 hPa West 5.0 km/h 7.9 km/h 88 % 0.5 mm
05:21 2.1 °C 1.0 °C 1011.1 hPa Calm   5.8 km/h 88 % 0.5 mm
05:22 2.1 °C 1.0 °C 1011.1 hPa Calm   5.0 km/h 88 % 0.5 mm
05:27 1.9 °C 0.0 °C 1011.1 hPa West 1.8 km/h 4.7 km/h 88 % 0.5 mm
05:32 1.9 °C 0.0 °C 1011.1 hPa West 4.0 km/h 4.7 km/h 88 % 0.5 mm
05:37 1.9 °C 1.0 °C 1011.1 hPa Calm   4.7 km/h 89 % 0.5 mm
05:42 2.0 °C 1.0 °C 1011.1 hPa WNW 1.4 km/h 4.7 km/h 89 % 0.5 mm
05:47 2.1 °C 1.0 °C 1011.1 hPa Calm   5.0 km/h 90 % 0.5 mm
05:52 2.1 °C 1.0 °C 1011.1 hPa West 3.5 km/h 6.9 km/h 90 % 0.5 mm
05:57 2.2 °C 1.0 °C 1011.1 hPa SSW 2.6 km/h 6.9 km/h 91 % 0.5 mm
06:02 2.3 °C 1.0 °C 1011.1 hPa Calm   4.3 km/h 91 % 0.0 mm
06:07 2.3 °C 1.0 °C 1011.1 hPa North 3.5 km/h 6.1 km/h 92 % 0.0 mm
06:12 2.4 °C 2.0 °C 1011.1 hPa NW 4.3 km/h 6.4 km/h 93 % 0.0 mm
06:17 2.4 °C 2.0 °C 1011.1 hPa NW 1.8 km/h 6.9 km/h 94 % 0.0 mm
06:22 2.5 °C 2.0 °C 1010.0 hPa NNW 6.9 km/h 10.1 km/h 94 % 0.0 mm
06:27 2.6 °C 2.0 °C 1010.0 hPa West 7.9 km/h 10.5 km/h 95 % 0.0 mm
06:32 2.7 °C 2.0 °C 1010.0 hPa North 10.5 km/h 10.5 km/h 95 % 0.0 mm
06:37 2.9 °C 3.0 °C 1011.1 hPa North 5.0 km/h 19.5 km/h 95 % 0.0 mm
06:42 3.1 °C 3.0 °C 1011.1 hPa NNW 5.5 km/h 19.5 km/h 95 % 0.0 mm
06:47 3.3 °C 3.0 °C 1011.1 hPa North 4.7 km/h 12.2 km/h 95 % 0.0 mm
06:53 3.5 °C 3.0 °C 1011.1 hPa NNW 5.0 km/h 10.5 km/h 95 % 0.0 mm
06:58 3.6 °C 3.0 °C 1011.1 hPa NNW 3.5 km/h 5.8 km/h 94 % 0.0 mm
07:03 3.7 °C 3.0 °C 1011.1 hPa North 8.7 km/h 9.0 km/h 94 % 0.0 mm
07:08 3.8 °C 3.0 °C 1011.1 hPa North 2.6 km/h 9.3 km/h 93 % 0.0 mm
07:13 3.9 °C 3.0 °C 1011.1 hPa Calm   9.3 km/h 93 % 0.0 mm
07:18 4.0 °C 3.0 °C 1011.1 hPa NNW 4.0 km/h 6.4 km/h 93 % 0.0 mm
07:23 4.0 °C 3.0 °C 1012.1 hPa Calm   7.6 km/h 93 % 0.0 mm
07:28 4.2 °C 3.0 °C 1012.1 hPa Calm   7.6 km/h 92 % 0.0 mm
07:33 4.4 °C 3.0 °C 1012.1 hPa Calm   5.5 km/h 93 % 0.0 mm
07:38 4.8 °C 4.0 °C 1012.1 hPa NNW 1.8 km/h 9.3 km/h 93 % 0.0 mm
07:43 5.4 °C 5.0 °C 1012.1 hPa Calm   9.3 km/h 93 % 0.0 mm
07:48 5.6 °C 5.0 °C 1012.1 hPa North 7.9 km/h 9.3 km/h 93 % 0.0 mm
07:53 5.8 °C 5.0 °C 1012.1 hPa North 5.5 km/h 9.3 km/h 92 % 0.0 mm
07:58 6.0 °C 5.0 °C 1012.1 hPa NNW 3.2 km/h 8.7 km/h 91 % 0.0 mm
08:03 5.7 °C 4.0 °C 1012.1 hPa WNW 4.3 km/h 6.9 km/h 90 % 0.0 mm
08:08 5.7 °C 4.0 °C 1012.1 hPa Calm   6.9 km/h 89 % 0.0 mm
08:13 6.3 °C 5.0 °C 1012.1 hPa West 4.0 km/h 6.9 km/h 89 % 0.8 mm
08:18 6.9 °C 6.0 °C 1012.1 hPa Calm   6.9 km/h 91 % 0.8 mm
08:23 6.9 °C 5.0 °C 1012.1 hPa NE 3.2 km/h 6.4 km/h 88 % 0.8 mm
08:28 6.5 °C 5.0 °C 1012.1 hPa NNE 9.0 km/h 9.0 km/h 86 % 0.8 mm
08:33 6.0 °C 4.0 °C 1012.1 hPa South 9.0 km/h 10.8 km/h 86 % 0.8 mm
08:38 5.5 °C 4.0 °C 1013.1 hPa North 6.4 km/h 13.0 km/h 85 % 0.8 mm
08:43 4.9 °C 3.0 °C 1013.1 hPa Calm   13.0 km/h 84 % 0.8 mm
08:49 4.4 °C 2.0 °C 1013.1 hPa NE 2.6 km/h 9.3 km/h 84 % 0.8 mm
08:54 4.3 °C 2.0 °C 1013.1 hPa Calm   6.9 km/h 85 % 0.8 mm
08:59 4.4 °C 2.0 °C 1013.1 hPa Calm   6.4 km/h 86 % 4.1 mm
09:04 4.6 °C 3.0 °C 1013.1 hPa Calm   5.8 km/h 88 % 4.1 mm
09:09 4.6 °C 3.0 °C 1013.1 hPa NW 3.5 km/h 5.5 km/h 88 % 4.1 mm
09:14 4.5 °C 3.0 °C 1013.1 hPa North 1.4 km/h 5.8 km/h 88 % 3.3 mm
09:19 4.4 °C 3.0 °C 1013.1 hPa Calm   5.8 km/h 88 % 3.3 mm
09:24 4.4 °C 3.0 °C 1013.1 hPa NNW 5.5 km/h 7.9 km/h 89 % 3.3 mm
09:29 4.6 °C 3.0 °C 1013.1 hPa West 2.1 km/h 7.9 km/h 90 % 3.3 mm
09:34 4.7 °C 3.0 °C 1013.1 hPa NW 5.5 km/h 5.8 km/h 91 % 3.3 mm
09:39 4.8 °C 3.0 °C 1012.1 hPa NNE 6.1 km/h 6.9 km/h 91 % 5.3 mm
09:44 5.1 °C 4.0 °C 1012.1 hPa NE 6.4 km/h 6.9 km/h 91 % 5.3 mm
09:49 5.4 °C 4.0 °C 1012.1 hPa NE 7.9 km/h 10.5 km/h 92 % 5.3 mm
09:54 6.5 °C 6.0 °C 1012.1 hPa NNW 3.2 km/h 10.5 km/h 93 % 5.3 mm
09:59 6.4 °C 6.0 °C 1012.1 hPa NE 1.8 km/h 9.3 km/h 93 % 2.0 mm
10:04 6.2 °C 5.0 °C 1012.1 hPa NE 12.2 km/h 12.2 km/h 91 % 2.0 mm
10:09 6.3 °C 5.0 °C 1012.1 hPa North 4.3 km/h 12.2 km/h 91 % 2.8 mm
10:14 7.7 °C 7.0 °C 1012.1 hPa North 7.6 km/h 10.5 km/h 93 % 2.8 mm
10:19 7.9 °C 7.0 °C 1012.1 hPa ENE 5.5 km/h 9.3 km/h 93 % 2.8 mm
10:24 6.8 °C 5.0 °C 1013.1 hPa NE 11.6 km/h 14.0 km/h 89 % 2.8 mm
10:29 6.4 °C 5.0 °C 1013.1 hPa NNE 10.8 km/h 14.0 km/h 87 % 2.8 mm
10:30 6.4 °C 5.0 °C 1013.1 hPa NNE 10.8 km/h 14.0 km/h 87 % 2.8 mm
10:34 6.1 °C 4.0 °C 1013.1 hPa North 11.1 km/h 14.8 km/h 86 % 2.8 mm
10:40 5.9 °C 4.0 °C 1013.1 hPa North 7.2 km/h 14.8 km/h 87 % 0.5 mm
10:45 5.7 °C 4.0 °C 1013.1 hPa NNE 3.5 km/h 12.2 km/h 87 % 0.5 mm
10:50 6.6 °C 5.0 °C 1013.1 hPa NE 5.0 km/h 12.2 km/h 89 % 0.5 mm
10:55 7.8 °C 6.0 °C 1012.1 hPa Calm   6.9 km/h 91 % 1.3 mm
11:00 8.4 °C 7.0 °C 1012.1 hPa Calm   6.9 km/h 90 % 1.3 mm
11:05 9.0 °C 7.0 °C 1012.1 hPa Calm     88 % 0.5 mm
11:10 9.4 °C 7.0 °C 1013.1 hPa Calm   7.9 km/h 86 % 0.5 mm
11:15 9.5 °C 8.0 °C 1013.1 hPa Calm   7.9 km/h 85 % 0.5 mm
11:20 10.1 °C 8.0 °C 1013.1 hPa NNW 7.9 km/h 7.9 km/h 84 % 0.5 mm
11:25 10.5 °C 8.0 °C 1013.1 hPa NNW 4.7 km/h 8.7 km/h 81 % 0.5 mm
11:30 11.0 °C 8.0 °C 1013.1 hPa NW 5.8 km/h 9.0 km/h 80 % 0.5 mm
11:35 10.6 °C 7.0 °C 1013.1 hPa West 5.8 km/h 9.0 km/h 77 % 0.5 mm
11:40 11.1 °C 7.0 °C 1012.1 hPa WNW 5.5 km/h 9.0 km/h 75 % 0.5 mm
11:45 9.9 °C 6.0 °C 1012.1 hPa NNW 9.7 km/h 12.6 km/h 72 % 0.3 mm
11:50 10.7 °C 6.0 °C 1012.1 hPa North 4.7 km/h 13.7 km/h 71 % 0.5 mm
11:55 11.2 °C 6.0 °C 1012.1 hPa North 9.0 km/h 13.7 km/h 71 % 0.0 mm
12:00 12.0 °C 7.0 °C 1012.1 hPa NNE 4.0 km/h 12.2 km/h 70 % 0.0 mm
12:05 11.0 °C 5.0 °C 1012.1 hPa SSW 6.4 km/h 15.4 km/h 66 % 0.0 mm
12:10 10.0 °C 4.0 °C 1013.1 hPa North 4.0 km/h 15.4 km/h 66 % 0.0 mm
12:15 10.0 °C 5.0 °C 1013.1 hPa NNE 5.5 km/h 15.4 km/h 68 % 0.0 mm
12:20 10.1 °C 5.0 °C 1013.1 hPa NW 6.4 km/h 15.4 km/h 69 % 0.0 mm
12:25 11.0 °C 6.0 °C 1013.1 hPa North 6.9 km/h 11.9 km/h 68 % 0.0 mm
12:31 10.9 °C 5.0 °C 1013.1 hPa WNW 11.9 km/h 16.3 km/h 64 % 0.0 mm
12:36 11.4 °C 4.0 °C 1013.1 hPa NNW 6.4 km/h 16.3 km/h 61 % 0.0 mm
12:41 11.2 °C 4.0 °C 1013.1 hPa North 6.4 km/h 15.8 km/h 60 % 0.0 mm
12:46 11.0 °C 4.0 °C 1013.1 hPa North 14.0 km/h 20.9 km/h 62 % 0.0 mm
12:51 11.0 °C 4.0 °C 1013.1 hPa NNE 10.5 km/h 20.9 km/h 60 % 0.0 mm
12:56 9.3 °C 4.0 °C 1013.1 hPa NNE 20.9 km/h 20.9 km/h 67 % 0.0 mm
13:01 8.7 °C 3.0 °C 1013.1 hPa ENE 11.9 km/h 20.9 km/h 69 % 0.0 mm
13:06 8.6 °C 4.0 °C 1013.1 hPa NNE 9.0 km/h 20.9 km/h 71 % 0.0 mm
13:11 8.5 °C 4.0 °C 1013.1 hPa NE 9.0 km/h 14.8 km/h 71 % 0.0 mm
13:16 8.4 °C 4.0 °C 1013.1 hPa Calm   14.8 km/h 71 % 0.0 mm
13:21 8.7 °C 4.0 °C 1013.1 hPa NNE 6.9 km/h 14.8 km/h 72 % 0.0 mm
13:24 9.2 °C 5.0 °C 1013.1 hPa East 5.5 km/h 13.7 km/h 73 % 0.0 mm
13:29 9.3 °C 5.0 °C 1013.1 hPa NE 9.0 km/h 10.1 km/h 73 % 0.0 mm
13:34 10.1 °C 6.0 °C 1013.1 hPa Calm   10.1 km/h 74 % 0.0 mm
13:39 11.0 °C 6.0 °C 1013.1 hPa ENE 4.3 km/h 9.0 km/h 73 % 0.0 mm
13:44 11.8 °C 7.0 °C 1013.1 hPa ENE 4.7 km/h 7.9 km/h 71 % 0.0 mm
13:49 12.0 °C 6.0 °C 1013.1 hPa NE 6.9 km/h 12.2 km/h 67 % 0.0 mm
13:54 12.5 °C 7.0 °C 1013.1 hPa NNW 4.3 km/h 16.3 km/h 65 % 0.0 mm
13:59 11.7 °C 6.0 °C 1013.1 hPa ENE 12.2 km/h 16.3 km/h 66 % 0.0 mm
14:04 10.5 °C 4.0 °C 1013.1 hPa NNE 20.6 km/h 26.2 km/h 63 % 0.0 mm
14:09 9.6 °C 3.0 °C 1013.1 hPa NE 17.7 km/h 26.2 km/h 62 % 0.0 mm
14:14 9.3 °C 2.0 °C 1013.1 hPa North 10.5 km/h 25.9 km/h 60 % 0.0 mm
14:19 9.1 °C 1.0 °C 1013.1 hPa NE 15.8 km/h 24.8 km/h 58 % 0.0 mm
14:24 9.1 °C 1.0 °C 1014.1 hPa North 12.6 km/h 20.9 km/h 56 % 0.0 mm
14:29 9.2 °C 1.0 °C 1014.1 hPa NE 17.2 km/h 20.9 km/h 56 % 0.0 mm
14:35 9.2 °C 1.0 °C 1014.1 hPa NNE 9.0 km/h 17.7 km/h 57 % 0.0 mm
14:40 9.3 °C 2.0 °C 1013.1 hPa NE 16.6 km/h 20.1 km/h 59 % 0.0 mm
14:45 9.6 °C 3.0 °C 1013.1 hPa NNE 15.8 km/h 20.1 km/h 61 % 0.0 mm
14:50 10.3 °C 4.0 °C 1013.1 hPa NNW 17.2 km/h 21.2 km/h 63 % 0.0 mm
14:55 10.6 °C 4.0 °C 1014.1 hPa North 18.3 km/h 23.8 km/h 63 % 0.0 mm
15:00 9.7 °C 3.0 °C 1014.1 hPa NNW 19.5 km/h 24.5 km/h 63 % 0.0 mm
15:05 8.8 °C 3.0 °C 1014.1 hPa NNW 9.7 km/h 24.5 km/h 64 % 0.0 mm
15:10 8.6 °C 3.0 °C 1014.1 hPa NNW 5.0 km/h 24.5 km/h 66 % 0.0 mm
15:15 8.5 °C 3.0 °C 1014.1 hPa North 4.0 km/h 11.6 km/h 67 % 0.0 mm
15:20 8.5 °C 3.0 °C 1014.1 hPa NNW 5.8 km/h 11.6 km/h 68 % 0.0 mm
15:25 8.7 °C 3.0 °C 1014.1 hPa North 8.7 km/h 9.7 km/h 69 % 0.0 mm
15:30 8.8 °C 4.0 °C 1014.1 hPa NNE 9.0 km/h 13.0 km/h 69 % 0.0 mm
15:35 8.5 °C 3.0 °C 1014.1 hPa NNW 13.0 km/h 16.6 km/h 68 % 0.0 mm
15:40 8.4 °C 3.0 °C 1014.1 hPa WNW 9.3 km/h 16.6 km/h 69 % 0.0 mm
15:45 8.3 °C 3.0 °C 1014.1 hPa Calm   12.2 km/h 69 % 0.0 mm
15:50 10.1 °C 5.0 °C 1014.1 hPa NNW 5.8 km/h 9.0 km/h 69 % 0.0 mm
15:55 11.4 °C 6.0 °C 1014.1 hPa NNW 9.7 km/h 9.7 km/h 68 % 0.0 mm
16:00 11.9 °C 5.0 °C 1014.1 hPa NW 14.0 km/h 17.2 km/h 62 % 0.0 mm
16:05 12.5 °C 6.0 °C 1014.1 hPa North 10.1 km/h 17.2 km/h 60 % 0.0 mm
16:10 13.1 °C 5.0 °C 1014.1 hPa NNW 11.9 km/h 16.9 km/h 58 % 0.0 mm
16:15 13.0 °C 4.0 °C 1014.1 hPa North 16.9 km/h 19.1 km/h 53 % 0.0 mm
16:21 13.0 °C 4.0 °C 1014.1 hPa NNW 14.3 km/h 19.5 km/h 52 % 0.0 mm
16:26 12.6 °C 3.0 °C 1013.1 hPa North 8.7 km/h 19.5 km/h 50 % 0.0 mm
16:31 11.2 °C 1.0 °C 1013.1 hPa WNW 14.0 km/h 27.0 km/h 50 % 0.0 mm
16:36 12.0 °C 3.0 °C 1013.1 hPa NNW 12.2 km/h 27.0 km/h 51 % 0.0 mm
16:41 12.5 °C 3.0 °C 1013.1 hPa North 16.3 km/h 23.0 km/h 50 % 0.0 mm
16:46 11.2 °C 1.0 °C 1013.1 hPa North 15.4 km/h 23.0 km/h 48 % 0.0 mm
16:51 12.6 °C 3.0 °C 1013.1 hPa NNW 16.3 km/h 19.8 km/h 49 % 0.0 mm
16:56 11.6 °C 2.0 °C 1014.1 hPa NE 9.7 km/h 21.9 km/h 50 % 0.0 mm
17:01 11.4 °C 2.0 °C 1014.1 hPa North 27.7 km/h 31.4 km/h 51 % 0.0 mm
17:06 11.1 °C 1.0 °C 1014.1 hPa NNW 16.6 km/h 31.4 km/h 50 % 0.0 mm
17:11 10.3 °C 1.0 °C 1014.1 hPa North 17.7 km/h 27.7 km/h 50 % 0.0 mm
17:16 10.0 °C 0.0 °C 1014.1 hPa NNW 9.3 km/h 25.3 km/h 50 % 0.0 mm
17:21 10.6 °C 1.0 °C 1014.1 hPa NW 3.5 km/h 16.6 km/h 51 % 0.0 mm
17:26 11.2 °C 2.0 °C 1014.1 hPa North 6.4 km/h 16.6 km/h 52 % 0.0 mm
17:31 11.9 °C 2.0 °C 1014.1 hPa North 17.7 km/h 17.7 km/h 51 % 0.0 mm
17:36 10.8 °C 0.0 °C 1014.1 hPa ENE 14.0 km/h 21.2 km/h 48 % 0.0 mm
17:41 11.0 °C 1.0 °C 1014.1 hPa North 9.7 km/h 21.2 km/h 49 % 0.0 mm
17:46 11.0 °C 1.0 °C 1014.1 hPa North 12.6 km/h 21.2 km/h 49 % 0.0 mm
17:51 11.8 °C 2.0 °C 1014.1 hPa North 13.7 km/h 21.9 km/h 50 % 0.0 mm
17:56 12.2 °C 2.0 °C 1014.1 hPa North 9.0 km/h 21.9 km/h 50 % 0.0 mm
18:01 11.7 °C 2.0 °C 1014.1 hPa NNW 16.6 km/h 24.5 km/h 51 % 0.0 mm
18:06 10.6 °C 1.0 °C 1014.1 hPa North 12.6 km/h 24.5 km/h 52 % 0.0 mm
18:11 10.6 °C 1.0 °C 1014.1 hPa NNE 15.4 km/h 19.5 km/h 52 % 0.0 mm
18:17 11.2 °C 2.0 °C 1014.1 hPa North 13.7 km/h 16.6 km/h 51 % 0.0 mm
18:22 11.8 °C 2.0 °C 1014.1 hPa NNW 16.3 km/h 17.2 km/h 50 % 0.0 mm
18:27 11.7 °C 1.0 °C 1014.1 hPa North 14.0 km/h 26.7 km/h 48 % 0.0 mm
18:32 11.8 °C 1.0 °C 1014.1 hPa North 6.9 km/h 26.7 km/h 48 % 0.0 mm
18:37 11.6 °C 1.0 °C 1014.1 hPa NNW 10.5 km/h 19.8 km/h 48 % 0.0 mm
18:42 11.3 °C 1.0 °C 1014.1 hPa NNE 17.7 km/h 19.8 km/h 48 % 0.0 mm
18:47 11.1 °C 0.0 °C 1014.1 hPa North 15.8 km/h 21.6 km/h 47 % 0.0 mm
18:52 11.0 °C 0.0 °C 1014.1 hPa NNW 9.0 km/h 21.6 km/h 47 % 0.0 mm
18:57 10.8 °C 0.0 °C 1014.1 hPa North 10.5 km/h 20.9 km/h 48 % 0.0 mm
19:02 10.0 °C 0.0 °C 1014.1 hPa NNE 11.9 km/h 20.9 km/h 48 % 0.0 mm
19:07 9.3 °C -1.0 °C 1015.1 hPa North 12.6 km/h 20.1 km/h 49 % 0.0 mm
19:12 9.0 °C -1.0 °C 1015.1 hPa North 14.0 km/h 19.8 km/h 50 % 0.0 mm
19:17 8.9 °C 0.0 °C 1015.1 hPa North 12.6 km/h 19.5 km/h 51 % 0.0 mm
19:22 8.7 °C 0.0 °C 1015.1 hPa NNE 13.0 km/h 23.8 km/h 52 % 0.0 mm
19:27 8.9 °C 0.0 °C 1014.1 hPa NNW 11.1 km/h 23.8 km/h 53 % 0.0 mm
19:32 9.2 °C 0.0 °C 1014.1 hPa North 10.5 km/h 21.2 km/h 52 % 0.0 mm
19:37 9.3 °C 0.0 °C 1015.1 hPa NNW 17.2 km/h 21.2 km/h 51 % 0.0 mm
19:42 9.2 °C 0.0 °C 1015.1 hPa NE 13.7 km/h 19.8 km/h 50 % 0.0 mm
19:47 9.2 °C 0.0 °C 1015.1 hPa North 13.0 km/h 21.9 km/h 51 % 0.0 mm
19:52 9.0 °C -1.0 °C 1015.1 hPa North 19.5 km/h 23.3 km/h 50 % 0.0 mm
19:57 8.7 °C 0.0 °C 1015.1 hPa North 24.8 km/h 29.9 km/h 52 % 0.0 mm
20:02 8.2 °C 0.0 °C 1015.1 hPa NE 23.0 km/h 29.9 km/h 54 % 0.0 mm
20:07 7.9 °C -1.0 °C 1015.1 hPa NNE 16.9 km/h 31.4 km/h 55 % 0.0 mm
20:12 7.7 °C -1.0 °C 1015.1 hPa North 16.6 km/h 31.4 km/h 54 % 0.0 mm
20:17 7.8 °C -1.0 °C 1015.1 hPa North 9.7 km/h 26.7 km/h 54 % 0.0 mm
20:23 7.8 °C -1.0 °C 1015.1 hPa NNE 13.0 km/h 17.7 km/h 55 % 0.0 mm
20:28 7.7 °C -1.0 °C 1015.1 hPa NE 9.0 km/h 15.8 km/h 55 % 0.0 mm
20:33 7.5 °C 0.0 °C 1015.1 hPa North 8.7 km/h 13.0 km/h 57 % 0.0 mm
20:38 7.3 °C 0.0 °C 1016.1 hPa North 5.8 km/h 13.0 km/h 59 % 0.0 mm
20:39 7.2 °C 0.0 °C 1016.1 hPa NNE 6.9 km/h 13.0 km/h 58 % 0.0 mm
20:44 7.0 °C 0.0 °C 1016.1 hPa NNE 4.3 km/h 9.3 km/h 59 % 0.0 mm
20:49 6.9 °C 0.0 °C 1016.1 hPa NW 5.8 km/h 9.0 km/h 60 % 0.0 mm
20:54 6.8 °C 0.0 °C 1015.1 hPa North 3.2 km/h 9.0 km/h 62 % 0.0 mm
20:59 6.7 °C 1.0 °C 1015.1 hPa NNW 6.4 km/h 10.5 km/h 64 % 0.0 mm
21:04 6.5 °C 1.0 °C 1015.1 hPa North 4.0 km/h 10.5 km/h 65 % 0.0 mm
21:09 6.4 °C 1.0 °C 1015.1 hPa Calm   8.7 km/h 67 % 0.0 mm
21:14 6.3 °C 1.0 °C 1015.1 hPa NNW 4.3 km/h 8.7 km/h 68 % 0.0 mm
21:19 6.1 °C 1.0 °C 1015.1 hPa North 6.9 km/h 8.7 km/h 68 % 0.0 mm
21:24 6.0 °C 1.0 °C 1015.1 hPa Calm   7.6 km/h 68 % 0.0 mm
21:29 5.8 °C 1.0 °C 1015.1 hPa North 3.5 km/h 7.6 km/h 69 % 0.0 mm
21:35 5.7 °C 1.0 °C 1015.1 hPa NNW 4.7 km/h 5.5 km/h 69 % 0.0 mm
21:40 5.6 °C 1.0 °C 1015.1 hPa Calm   4.7 km/h 70 % 0.0 mm
21:45 5.4 °C 1.0 °C 1015.1 hPa Calm   3.5 km/h 70 % 0.0 mm
21:50 5.3 °C 1.0 °C 1015.1 hPa Calm   2.1 km/h 70 % 0.0 mm
21:55 5.0 °C 1.0 °C 1016.1 hPa Calm     71 % 0.0 mm
22:00 5.0 °C 1.0 °C 1016.1 hPa North 4.0 km/h 4.3 km/h 72 % 0.0 mm
22:05 4.8 °C 0.0 °C 1016.1 hPa Calm   5.5 km/h 72 % 0.0 mm
22:10 4.7 °C 0.0 °C 1015.1 hPa Calm   5.5 km/h 73 % 0.0 mm
22:15 4.6 °C 0.0 °C 1015.1 hPa Calm     72 % 0.0 mm
22:20 4.4 °C 0.0 °C 1015.1 hPa Calm   3.2 km/h 72 % 0.0 mm
22:25 4.3 °C 0.0 °C 1016.1 hPa Calm   3.2 km/h 73 % 0.0 mm
22:30 4.3 °C 0.0 °C 1016.1 hPa WNW 3.5 km/h 3.5 km/h 74 % 0.0 mm
22:35 4.3 °C 0.0 °C 1016.1 hPa WNW 2.1 km/h 5.0 km/h 74 % 0.0 mm
22:40 4.2 °C 1.0 °C 1016.1 hPa Calm   7.6 km/h 75 % 0.0 mm
22:45 4.3 °C 1.0 °C 1016.1 hPa Calm   7.6 km/h 77 % 0.0 mm
22:50 4.3 °C 1.0 °C 1016.1 hPa Calm   6.9 km/h 76 % 0.0 mm
22:55 4.3 °C 1.0 °C 1016.1 hPa West 2.1 km/h 4.7 km/h 76 % 0.0 mm
23:00 4.1 °C 0.0 °C 1016.1 hPa NW 6.1 km/h 6.1 km/h 76 % 0.0 mm
23:05 4.1 °C 0.0 °C 1016.1 hPa Calm   6.4 km/h 76 % 0.0 mm
23:10 4.1 °C 1.0 °C 1016.8 hPa WNW 4.0 km/h 8.7 km/h 77 % 0.0 mm
23:15 4.1 °C 1.0 °C 1016.8 hPa NW 4.7 km/h 9.0 km/h 77 % 0.0 mm
23:20 4.2 °C 1.0 °C 1016.8 hPa NNW 9.3 km/h 9.3 km/h 78 % 0.0 mm
23:25 4.3 °C 1.0 °C 1016.8 hPa NW 6.4 km/h 9.3 km/h 78 % 0.0 mm
23:30 4.3 °C 1.0 °C 1016.8 hPa WNW 4.0 km/h 9.3 km/h 78 % 0.0 mm
23:35 4.3 °C 1.0 °C 1016.8 hPa NW 4.7 km/h 8.7 km/h 78 % 0.0 mm
23:41 4.3 °C 1.0 °C 1016.8 hPa NNW 5.8 km/h 9.0 km/h 78 % 0.0 mm
23:46 4.3 °C 1.0 °C 1016.8 hPa NNW 4.0 km/h 9.7 km/h 78 % 0.0 mm
23:51 4.4 °C 1.0 °C 1016.8 hPa NNE 4.0 km/h 9.7 km/h 79 % 0.0 mm
23:56 4.4 °C 1.0 °C 1016.8 hPa NNW 3.2 km/h 6.9 km/h 79 % 0.0 mm
Le Gheer Warneton
Courtoisie de Weather Underground - 2.25 mb

Mise a jour : 16-12-17 15:46:11
Généré par Cumulus 1.9.4 (1099)